Tatalina, AK

12:14 PM AKDT on July 27, 2017 (GMT -0800)
Tatalina

Weather History for PATL - January, 2014

Change the Weather History Date:

Monday, January 20, 2014

  Actual Average Record
Temperature  
Mean Temperature 32 °F -  
Max Temperature 38 °F 5 °F 38 °F (2014)
Min Temperature 26 °F -2 °F -31 °F (2006)
Degree Days  
Heating Degree Days 34    
Moisture  
Dew Point 23 °F    
Average Humidity 67    
Maximum Humidity 73    
Minimum Humidity 59    
Precipitation  
Precipitation 0.22 in - - ()
Sea Level Pressure  
Sea Level Pressure 29.57 in    
Wind  
Wind Speed 11 mph (NE)    
Max Wind Speed 17 mph    
Max Gust Speed 28 mph    
Visibility 10 miles    
Events      
Averages and records for this station are not official NWS values.
T = Trace of Precipitation, MM = Missing Value Source: NWS Daily Summary

Daily Weather History Graph

Daily Weather History Graph

Search for Another Location

Airport or City:

Trip Planner

Search our weather history database for the weather conditions in past years. The results will help you decide how hot, cold, wet, or windy it might be!

Date:

Astronomy

Jan. 20, 2014 Rise Set
Actual Time 10:25 AM AKST 4:45 PM AKST
Civil Twilight 9:26 AM AKST 5:44 PM AKST
Nautical Twilight 8:27 AM AKST 6:43 PM AKST
Astronomical Twilight 7:32 AM AKST 7:38 PM AKST
Moon 11:23 PM AKST (1/20) 10:47 AM AKST (1/20)
Length of Visible Light 8h 17m
Length of Day
6h 19m
Waning Gibbous, 81% of the Moon is Illuminated
Jan 20
Waning Gibbous
Jan 23
Last Quarter
Jan 30
New
Feb 6
First Quarter
Feb 14
Full

Hourly Weather History & Observations

Time (AKST) Temp. Windchill Dew Point Humidity Pressure Visibility Wind Dir Wind Speed Gust Speed Precip Events Conditions
12:55 AM 27.5 °F 20.2 °F 19.0 °F 71% 29.68 in 10.0 mi ENE 6.9 mph 15.0 mph N/A   Mostly Cloudy
1:55 AM 26.4 °F 16.6 °F 18.5 °F 72% 29.66 in 10.0 mi ENE 10.4 mph 20.7 mph N/A   Partly Cloudy
3:55 AM 27.5 °F 15.0 °F 19.4 °F 72% 29.62 in 10.0 mi NE 17.3 mph 25.3 mph N/A   Mostly Cloudy
4:55 AM 28.0 °F 18.1 °F 20.1 °F 72% 29.63 in 10.0 mi ENE 11.5 mph 21.9 mph N/A   Overcast
5:55 AM 28.9 °F 19.8 °F 21.0 °F 72% 29.61 in 10.0 mi ENE 10.4 mph 19.6 mph N/A   Overcast
6:55 AM 30.2 °F 20.2 °F 21.9 °F 71% 29.60 in 10.0 mi ENE 12.7 mph 19.6 mph 0.01 in   Mostly Cloudy
7:55 AM 29.7 °F 20.1 °F 22.1 °F 73% 29.59 in 10.0 mi ENE 11.5 mph 20.7 mph N/A   Mostly Cloudy
8:55 AM 30.2 °F 18.9 °F 22.5 °F 73% 29.60 in 10.0 mi ENE 16.1 mph 24.2 mph N/A   Mostly Cloudy
9:55 AM 30.7 °F 20.4 °F 22.8 °F 72% 29.60 in 10.0 mi ENE 13.8 mph 21.9 mph N/A   Overcast
10:55 AM 31.6 °F 20.4 °F 23.2 °F 71% 29.61 in 10.0 mi NE 17.3 mph 21.9 mph 0.01 in   Mostly Cloudy
11:55 AM 32.9 °F 24.1 °F 24.1 °F 70% 29.62 in 10.0 mi ENE 11.5 mph 24.2 mph 0.02 in   Mostly Cloudy
12:55 PM 33.6 °F 25.0 °F 24.6 °F 70% 29.60 in 10.0 mi ENE 11.5 mph 23.0 mph 0.03 in   Mostly Cloudy
1:55 PM 34.5 °F 26.2 °F 24.4 °F 67% 29.59 in 10.0 mi ENE 11.5 mph 20.7 mph 0.03 in   Mostly Cloudy
2:55 PM 35.8 °F 27.8 °F 24.4 °F 63% 29.55 in 10.0 mi ENE 11.5 mph 20.7 mph 0.05 in   Clear
3:55 PM 36.3 °F 28.4 °F 24.4 °F 62% 29.54 in 10.0 mi ENE 11.5 mph 21.9 mph 0.06 in   Partly Cloudy
4:55 PM 35.6 °F 27.1 °F 24.3 °F 63% 29.50 in 10.0 mi ENE 12.7 mph 20.7 mph 0.01 in   Mostly Cloudy
5:55 PM 37.0 °F 27.7 °F 24.3 °F 60% 29.48 in 10.0 mi NE 16.1 mph 27.6 mph N/A   Mostly Cloudy
6:55 PM 37.0 °F 28.9 °F 24.3 °F 60% 29.51 in 10.0 mi North 12.7 mph 19.6 mph N/A   Overcast
7:55 PM 36.9 °F 31.4 °F 23.7 °F 59% 29.53 in 10.0 mi NE 6.9 mph - N/A   Overcast
8:55 PM 36.0 °F 32.1 °F 23.9 °F 62% 29.53 in 10.0 mi NE 4.6 mph - N/A   Mostly Cloudy
9:55 PM 34.9 °F 27.7 °F 23.9 °F 64% 29.51 in 10.0 mi NE 9.2 mph - N/A   Partly Cloudy
10:55 PM 36.0 °F 29.6 °F 24.4 °F 63% 29.51 in 10.0 mi ENE 8.1 mph - N/A   Mostly Cloudy
11:55 PM 36.0 °F 29.6 °F 25.2 °F 65% 29.50 in 10.0 mi NE 8.1 mph - N/A   Partly Cloudy